Temperature
15 16 17 17 17 17 17 17 17 16 16 16 15 15 15 14 14 14 14 14 14 14 14 14 14 13 13 13 13 14 14 14 14 15 15 15 15 15 15 15 15 15 15
16 16 17 17 17 18 18 17 17 17 17 16 15 15 14 14 14 14 13 13 13 14 14 14 13 13 13 13 13 13 14 14 14 14 14 14 15 15 15 15 15 15 15
16 17 17 17 18 18 17 17 17 17 16 16 15 15 15 14 14 14 14 13 13 14 14 13 13 12 12 13 13 13 13 14 14 14 14 14 14 15 15 15 15 15 15
17 18 18 17 17 17 17 17 16 16 16 15 15 15 15 15 14 14 14 14 14 14 14 13 13 12 12 12 12 13 13 13 13 13 13 13 14 14 14 15 15 15 15
17 17 17 17 16 16 16 16 16 15 15 15 15 15 15 15 15 14 14 14 14 14 14 14 13 13 13 12 12 12 13 13 13 13 13 13 13 13 14 14 15 15 15
16 16 16 16 16 16 16 16 15 15 15 14 14 15 15 15 15 14 14 14 14 14 14 14 13 13 13 13 12 12 12 12 12 12 12 12 12 13 13 13 14 14 14
15 15 16 16 16 15 15 14 14 14 14 14 14 15 15 15 15 15 14 14 14 14 14 13 13 13 13 13 13 12 12 12 12 12 12 12 12 12 12 12 13 13 13
14 14 14 14 14 14 14 13 13 13 13 13 14 14 14 14 14 14 14 14 14 14 13 13 13 13 13 13 13 13 13 12 12 12 12 12 12 12 12 12 12 12 12
12 12 12 13 13 13 13 12 12 12 12 12 13 13 13 13 13 13 13 13 14 14 13 13 13 13 13 13 13 13 13 13 13 12 12 12 11 11 11 12 12 12 12
12 12 12 11 11 12 11 11 11 11 11 11 11 12 12 12 12 13 13 13 13 13 13 13 13 13 13 13 13 13 13 13 13 13 13 12 12 12 12 12 12 12 12
12 12 11 11 11 11 11 11 11 11 11 11 11 11 11 12 12 12 12 12 12 12 12 12 12 12 12 12 12 13 13 13 13 13 13 13 12 12 12 12 12 12 12
12 12 11 11 11 11 11 11 11 11 11 11 11 11 11 11 11 11 11 11 11 11 12 12 12 12 12 12 12 12 12 13 13 13 13 13 12 12 12 12 11 11 11
12 12 11 11 11 11 11 11 11 11 11 11 11 11 11 11 11 11 10 10 10 11 11 11 11 11 12 12 12 12 12 12 12 12 12 12 12 11 11 11 11 11 11
12 12 11 11 11 11 11 11 11 10 10 10 11 11 11 11 10 10 10 10 10 10 10 10 11 11 11 11 11 11 12 12 12 11 11 11 11 11 10 10 10 10 10
12 12 11 11 10 11 11 11 11 10 10 10 10 11 10 10 10 9 9 9 9 9 10 10 10 10 11 11 11 11 11 11 11 10 10 10 10 10 10 10 10 10 10
13 12 11 11 11 11 11 11 10 10 10 10 10 10 10 10 10 9 9 9 9 9 9 10 10 10 10 10 10 10 10 10 10 10 10 10 10 10 10 10 10 10 10
13 12 11 11 11 11 11 10 10 10 10 9 9 9 9 10 10 10 9 9 9 9 9 9 9 10 10 10 10 10 10 10 10 10 10 10 9 9 9 9 9 9 9
13 12 12 11 11 11 10 10 10 9 9 9 9 9 9 9 10 10 10 9 9 9 9 9 9 9 9 10 10 10 10 10 9 9 9 9 9 9 9 9 9 9 9
14 13 12 11 11 11 10 10 10 9 9 9 9 9 9 9 9 9 9 9 9 9 9 9 9 9 9 9 9 9 9 9 9 9 9 9 9 9 8 8 8 8 8
14 13 12 11 11 11 10 10 10 10 9 9 9 9 9 9 9 9 8 8 8 8 8 8 8 8 8 8 8 8 8 8 8 8 8 8 8 8 8 8 8 8 8
14 13 12 11 11 11 10 10 10 10 9 9 9 9 8 8 8 8 8 8 8 8 8 8 7 7 7 7 7 7 7 8 8 8 8 8 7 8 8 8 8 8 7
14 13 12 11 11 11 10 10 10 10 9 9 9 8 8 8 7 7 7 7 7 7 7 7 7 7 7 7 7 7 7 7 7 7 7 7 7 7 7 7 7 7 7
14 13 12 11 11 11 10 10 10 9 9 9 8 8 8 7 7 7 7 7 7 7 7 7 7 7 7 7 8 8 7 7 7 7 7 7 7 7 7 7 7 6 6
13 13 12 11 11 11 11 10 10 9 9 8 8 8 8 7 7 7 6 6 6 7 7 7 8 8 8 8 7 7 7 7 7 6 6 6 6 6 6 6 6 6 6
13 12 12 11 11 11 11 10 10 9 9 8 8 8 8 7 7 7 6 6 7 7 8 8 8 8 8 8 8 7 7 7 7 6 6 6 6 6 6 6 5 5 5
13 12 12 12 11 11 11 10 10 10 9 8 8 8 7 7 7 6 6 6 7 8 8 8 8 8 8 8 8 8 8 7 7 7 6 6 6 6 5 5 5 5 4
Wind_Speed
2 4 6 4 5 5 4 3 3 3 3 3 4 4 5 5 4 4 3 3 4 3 3 4 6 6 6 6 6 6 8 7 7 4 3 3 5 6 7 11 13 13 13
5 6 6 5 5 5 5 5 4 5 5 5 5 5 5 5 5 5 5 4 4 3 2 3 5 5 7 6 7 8 8 8 7 7 4 4 5 4 5 6 8 11 12
8 6 4 4 4 4 4 3 2 2 3 3 4 5 5 5 6 6 6 5 4 3 3 4 5 6 6 6 7 8 8 9 8 7 5 4 3 2 2 3 4 5 8
6 5 4 4 3 3 1 2 2 1 1 3 4 5 5 5 6 6 6 6 5 4 4 4 4 5 6 6 7 8 8 9 8 6 5 4 3 2 3 3 4 6 5
2 1 2 2 3 2 3 3 3 1 2 3 4 4 4 5 5 6 7 7 7 6 4 3 3 3 4 4 4 4 6 5 5 5 4 4 4 3 4 4 6 4 5
4 2 3 3 2 3 4 5 4 4 4 4 5 4 4 4 5 6 7 7 7 7 5 4 3 3 3 3 5 6 6 5 5 4 4 5 5 5 4 4 4 4 4
8 7 6 4 3 3 4 6 6 6 6 6 5 4 3 3 4 4 7 7 6 6 6 5 3 3 3 2 4 5 7 9 9 5 5 6 4 5 5 5 5 5 4
9 9 9 9 8 7 8 8 7 5 5 5 4 3 3 4 7 6 3 5 5 6 6 5 4 4 3 4 4 4 5 6 8 6 6 5 4 4 4 4 4 4 2
9 9 9 9 8 8 8 7 6 6 7 7 6 6 6 7 10 6 2 3 2 3 3 4 5 5 6 6 5 6 7 7 9 12 12 10 9 8 6 3 3 3 2
8 8 7 7 7 7 7 6 6 6 6 6 7 7 8 7 12 11 5 2 1 0 1 2 4 6 7 6 6 6 8 7 5 5 8 10 8 7 9 7 5 4 3
5 5 6 6 6 6 6 6 6 6 7 7 7 7 7 9 11 14 10 3 1 1 1 1 2 5 7 7 5 7 9 5 3 4 3 2 2 2 1 1 2 3 3
2 4 4 5 4 4 6 6 6 7 7 8 8 8 6 7 9 11 12 9 5 2 2 2 3 6 7 6 3 6 7 4 3 2 2 2 2 2 1 1 1 1 1
1 3 4 4 4 4 5 5 5 6 6 6 6 7 7 7 7 13 12 11 9 4 3 5 6 7 6 4 4 5 6 5 4 3 3 2 1 1 2 2 2 1 1
1 1 3 4 4 4 4 4 4 5 5 5 6 6 6 6 6 7 6 6 6 5 4 5 6 4 1 3 3 4 4 4 4 3 3 2 2 2 1 1 1 1 2
1 1 2 3 4 3 2 2 3 2 2 3 3 4 5 6 8 12 8 7 7 6 4 2 1 1 2 2 3 3 3 4 3 3 3 3 2 1 0 0 0 0 1
2 1 1 2 3 3 2 2 2 1 3 4 5 6 4 7 12 12 13 14 15 11 2 1 1 1 2 3 3 3 3 4 3 4 4 3 2 1 1 1 1 2 2
3 2 1 2 3 3 3 3 3 3 3 4 7 9 9 11 11 11 11 12 13 12 6 4 4 4 5 5 5 4 4 4 4 4 4 4 3 3 2 2 1 1 2
3 3 3 2 2 2 2 3 3 3 3 4 6 9 11 12 15 15 12 9 8 9 8 8 8 7 7 6 6 5 5 5 5 5 5 4 4 3 3 2 2 2 3
4 3 3 3 2 2 2 3 4 4 4 4 5 6 10 10 12 15 13 8 8 8 8 9 8 8 7 7 6 6 6 5 5 4 4 4 3 2 2 2 3 4 4
4 6 5 4 3 3 3 3 4 4 4 5 6 5 5 7 8 8 8 7 7 7 7 8 8 8 7 7 6 6 6 6 6 5 4 3 3 2 3 3 4 4 4
5 5 6 4 3 3 3 3 3 3 4 4 4 5 6 6 6 6 6 6 7 7 7 8 8 8 8 7 7 7 7 6 5 5 5 4 4 3 3 3 4 4 4
5 5 4 4 4 3 4 4 3 3 4 4 3 3 6 5 5 5 5 6 7 7 6 6 6 6 6 6 6 5 5 4 4 5 5 5 4 3 3 3 3 4 4
5 6 5 4 3 4 5 4 4 4 4 3 3 2 3 3 4 4 5 5 5 5 5 5 5 5 6 6 6 4 4 4 4 4 4 4 4 3 3 3 3 4 4
5 6 6 5 4 4 4 4 4 4 4 3 2 2 2 2 2 3 4 4 5 4 6 7 6 6 9 9 9 9 8 7 6 4 4 3 4 4 4 4 4 5 5
4 5 5 5 4 4 4 4 4 4 3 3 2 1 2 3 3 3 4 4 5 5 6 8 8 8 9 10 10 10 12 13 13 10 8 5 6 6 5 5 5 5 6
4 4 4 4 4 5 5 5 4 4 3 3 2 2 3 3 3 4 4 4 4 4 4 6 8 9 9 10 11 11 11 12 13 12 10 6 5 5 5 5 6 6 6
Wind_Direction
201 108 92 103 129 135 139 153 174 181 175 183 189 187 190 194 196 198 219 223 232 241 240 240 239 211 204 203 198 197 202 201 225 239 233 224 199 201 199 204 209 209 211
137 117 123 142 154 168 179 185 181 176 174 184 190 199 208 204 201 206 219 222 221 222 241 263 268 250 226 209 206 212 212 207 213 230 223 210 216 203 188 191 203 211 211
130 129 149 173 192 203 202 183 165 165 180 191 193 205 218 218 211 211 208 215 228 234 236 252 264 255 244 226 220 222 219 213 208 216 214 195 193 156 149 187 204 215 216
144 155 183 210 226 234 203 129 117 136 235 256 243 230 229 232 228 218 205 198 206 225 240 254 264 250 243 234 227 225 216 209 201 200 193 185 181 164 161 184 205 213 222
134 136 244 277 308 335 40 55 41 343 284 266 259 254 242 236 229 212 203 194 189 200 217 241 275 277 257 235 230 221 208 201 192 196 194 188 191 182 202 193 209 192 220
67 23 323 310 330 14 33 28 12 344 314 298 283 265 250 246 253 231 200 196 193 192 197 215 251 275 271 253 247 229 208 195 195 198 208 216 216 207 192 183 183 175 230
48 33 14 8 24 26 20 19 9 352 338 323 313 298 271 279 299 288 216 190 196 202 199 201 221 237 241 244 267 258 234 224 214 199 210 222 215 200 188 195 199 199 215
43 37 31 37 42 41 41 33 16 4 358 347 342 351 6 10 10 359 308 185 193 206 206 205 219 248 249 231 231 244 245 238 229 223 222 226 210 183 186 199 200 204 210
38 34 30 33 37 36 35 26 17 23 27 26 22 23 22 7 7 12 56 123 167 207 215 216 224 247 260 243 222 241 253 255 248 241 240 236 225 213 204 204 200 202 235
20 25 27 32 39 36 31 28 22 30 30 30 30 26 25 14 15 25 56 81 92 152 240 249 250 262 275 272 220 225 245 254 244 248 247 248 237 230 230 233 230 216 201
8 30 34 37 47 42 39 33 28 30 31 28 24 19 21 16 16 22 29 40 8 324 293 284 287 299 299 301 250 219 235 238 225 218 221 214 190 179 200 234 205 199 199
21 49 42 36 41 44 49 41 36 33 31 20 12 8 7 7 9 9 13 14 5 330 301 297 297 310 305 302 273 229 219 184 151 145 142 137 131 131 121 103 110 169 221
35 35 24 25 33 37 47 43 39 37 35 22 10 3 356 355 357 5 7 5 358 340 302 298 302 304 299 288 245 198 163 147 146 145 143 132 112 115 103 86 67 52 11
202 357 7 6 5 16 28 35 42 36 31 18 6 358 351 349 356 357 356 357 352 342 322 307 307 302 212 157 129 129 138 149 149 147 141 125 111 104 86 73 60 29 356
198 269 354 358 352 354 25 41 44 49 24 357 344 344 349 349 344 344 349 347 340 319 308 288 269 184 145 128 115 115 119 123 117 118 123 125 132 141 274 287 195 186 276
195 187 23 2 358 8 31 61 49 39 346 336 341 351 332 324 327 336 343 346 347 350 17 41 351 109 106 96 102 96 88 90 88 93 92 90 87 73 290 242 243 247 265
196 170 113 39 25 19 34 47 28 356 319 316 336 345 346 345 353 355 355 355 3 14 37 40 49 61 72 72 72 75 75 73 78 82 79 70 62 47 36 21 360 330 315
186 161 142 110 71 58 58 52 47 29 6 349 349 3 18 31 32 28 21 24 26 30 38 42 49 54 58 61 62 65 68 66 65 66 65 59 50 39 25 6 348 326 312
169 155 143 131 113 102 79 62 57 51 40 17 9 8 16 31 37 34 34 39 37 36 39 43 46 50 53 56 58 60 65 66 64 65 59 54 48 43 19 349 331 315 306
166 164 146 130 116 109 91 75 63 57 51 46 42 25 15 39 44 35 37 36 37 38 41 44 43 46 48 49 51 54 58 55 48 42 31 24 22 28 11 352 339 328 316
146 147 138 118 119 124 117 105 91 74 64 68 60 52 64 62 52 40 38 37 37 39 44 45 42 38 36 36 37 39 43 39 30 21 11 2 1 359 347 336 326 320 314
139 135 132 132 130 129 129 130 122 104 89 90 76 61 67 70 60 47 42 46 50 48 43 48 47 40 34 31 28 26 25 20 13 5 356 346 339 340 343 347 346 343 344
139 139 136 138 140 135 128 134 137 131 124 118 110 88 70 73 72 62 56 57 55 47 40 42 44 32 21 19 17 11 4 352 341 335 334 333 342 354 1 8 10 7 6
154 152 150 148 141 135 138 146 153 150 148 151 153 144 124 109 96 79 66 64 62 47 38 35 34 26 20 17 16 18 15 5 350 332 329 350 14 23 30 33 29 20 13
170 165 160 157 151 147 149 155 164 168 166 168 169 159 135 128 113 87 75 75 72 54 38 32 27 23 19 19 20 22 29 35 38 38 41 45 44 40 40 36 34 31 25
179 173 169 163 159 158 162 167 170 171 174 180 175 157 135 132 128 105 94 89 81 61 41 29 24 23 20 18 19 23 30 35 38 43 48 49 46 42 44 45 41 37 32
Height
1499 1501 1503 1505 1507 1507 1507 1507 1507 1508 1508 1510 1511 1513 1513 1513 1513 1513 1512 1511 1511 1511 1511 1512 1513 1514 1515 1516 1518 1520 1522 1524 1525 1526 1530 1532 1533 1534 1535 1537 1538 1539 1540
1497 1500 1502 1503 1504 1504 1504 1504 1505 1505 1505 1507 1508 1509 1510 1510 1511 1511 1511 1510 1509 1509 1509 1508 1508 1509 1509 1511 1512 1513 1515 1518 1520 1521 1525 1527 1529 1530 1531 1533 1534 1535 1537
1496 1498 1500 1500 1501 1502 1502 1503 1503 1503 1504 1505 1505 1506 1507 1508 1508 1509 1509 1508 1508 1507 1507 1505 1505 1505 1506 1507 1508 1509 1510 1512 1514 1517 1519 1522 1524 1525 1527 1528 1529 1531 1533
1495 1496 1497 1498 1499 1501 1501 1501 1500 1501 1501 1502 1503 1503 1504 1504 1505 1506 1506 1506 1506 1506 1505 1503 1502 1503 1504 1504 1504 1505 1506 1507 1508 1511 1514 1516 1518 1520 1522 1523 1525 1526 1528
1493 1494 1495 1496 1497 1498 1499 1498 1498 1498 1499 1499 1499 1499 1500 1501 1502 1503 1504 1504 1504 1504 1504 1503 1502 1502 1502 1502 1502 1502 1503 1503 1504 1506 1509 1511 1512 1514 1516 1519 1520 1522 1523
1493 1493 1494 1494 1495 1495 1495 1496 1496 1497 1497 1496 1495 1495 1496 1497 1498 1499 1500 1501 1501 1502 1502 1502 1502 1501 1501 1501 1501 1501 1501 1502 1503 1504 1506 1507 1508 1510 1512 1513 1515 1516 1518
1494 1493 1493 1493 1493 1493 1494 1494 1494 1494 1494 1493 1492 1492 1493 1493 1494 1495 1496 1498 1499 1500 1500 1501 1501 1501 1501 1500 1500 1501 1501 1501 1502 1503 1504 1504 1505 1506 1508 1508 1509 1511 1513
1496 1495 1494 1494 1493 1493 1493 1493 1493 1492 1491 1490 1489 1489 1489 1490 1491 1492 1493 1495 1495 1496 1497 1498 1499 1500 1500 1500 1500 1500 1500 1501 1501 1501 1502 1503 1504 1504 1504 1505 1505 1506 1508
1498 1497 1496 1496 1495 1495 1494 1494 1492 1491 1489 1488 1487 1487 1487 1488 1488 1489 1490 1491 1492 1493 1494 1495 1497 1498 1499 1499 1499 1499 1499 1500 1500 1499 1500 1500 1501 1501 1502 1502 1502 1503 1504
1501 1500 1500 1499 1499 1497 1496 1495 1494 1492 1490 1489 1488 1487 1486 1486 1486 1486 1487 1488 1489 1490 1491 1492 1493 1495 1496 1496 1497 1497 1497 1498 1497 1497 1497 1497 1498 1498 1499 1499 1499 1500 1500
1508 1506 1505 1503 1502 1500 1499 1497 1495 1494 1491 1489 1487 1486 1485 1485 1485 1485 1485 1485 1486 1486 1487 1488 1489 1490 1491 1493 1494 1494 1495 1496 1495 1495 1496 1496 1496 1496 1496 1496 1496 1497 1497
1512 1510 1508 1506 1505 1503 1501 1500 1498 1495 1492 1490 1488 1487 1486 1485 1484 1483 1482 1482 1482 1483 1483 1484 1485 1486 1487 1488 1489 1491 1492 1493 1494 1494 1494 1495 1494 1495 1495 1495 1495 1495 1495
1515 1512 1510 1508 1507 1505 1503 1501 1499 1496 1494 1491 1490 1488 1487 1486 1484 1483 1481 1480 1480 1480 1480 1480 1480 1481 1482 1483 1485 1487 1489 1490 1491 1492 1493 1493 1494 1494 1494 1495 1495 1495 1495
1514 1512 1510 1509 1508 1506 1504 1502 1500 1498 1495 1493 1491 1490 1489 1488 1485 1483 1481 1479 1478 1477 1476 1476 1476 1477 1478 1479 1481 1483 1486 1488 1489 1491 1491 1492 1493 1494 1494 1494 1495 1495 1495
1513 1512 1510 1509 1508 1506 1505 1503 1501 1499 1497 1495 1494 1492 1491 1489 1487 1485 1482 1479 1476 1474 1472 1472 1473 1474 1475 1476 1479 1481 1483 1486 1488 1490 1491 1492 1493 1494 1494 1494 1495 1495 1494
1513 1512 1510 1509 1508 1506 1505 1503 1501 1500 1498 1497 1496 1495 1493 1491 1489 1487 1484 1480 1476 1472 1470 1470 1471 1473 1474 1476 1478 1481 1483 1486 1488 1490 1491 1492 1492 1493 1494 1494 1493 1493 1492
1513 1512 1511 1509 1508 1507 1505 1503 1502 1501 1500 1499 1498 1497 1495 1493 1491 1488 1486 1482 1479 1475 1472 1472 1472 1473 1475 1478 1479 1482 1484 1486 1488 1489 1491 1492 1492 1492 1492 1492 1491 1491 1490
1513 1512 1511 1510 1509 1508 1507 1505 1503 1501 1500 1500 1499 1498 1497 1495 1492 1490 1488 1486 1483 1479 1477 1476 1476 1477 1478 1480 1482 1484 1486 1487 1488 1489 1490 1491 1491 1491 1491 1490 1489 1488 1487
1513 1512 1511 1510 1510 1510 1508 1507 1505 1503 1501 1500 1500 1500 1499 1497 1495 1493 1491 1489 1487 1485 1483 1482 1482 1482 1482 1484 1485 1486 1487 1488 1489 1489 1490 1490 1490 1489 1488 1487 1486 1485 1484
1512 1512 1511 1511 1511 1511 1510 1509 1507 1505 1504 1503 1502 1502 1501 1499 1497 1495 1493 1492 1491 1490 1489 1488 1487 1487 1487 1487 1487 1488 1488 1488 1489 1489 1489 1489 1488 1487 1486 1485 1484 1483 1482
1512 1512 1512 1511 1511 1511 1511 1510 1510 1508 1507 1506 1505 1504 1503 1501 1499 1498 1496 1495 1494 1493 1492 1491 1491 1490 1489 1489 1489 1489 1488 1488 1488 1488 1487 1487 1486 1486 1485 1484 1482 1481 1479
1511 1511 1511 1512 1512 1512 1512 1511 1511 1510 1509 1508 1507 1506 1505 1503 1501 1500 1499 1498 1497 1496 1495 1494 1492 1491 1490 1489 1488 1488 1487 1486 1486 1486 1485 1485 1485 1484 1483 1482 1480 1478 1476
1510 1510 1511 1511 1512 1512 1512 1512 1511 1511 1511 1510 1509 1508 1507 1505 1504 1502 1501 1500 1499 1498 1496 1495 1493 1491 1490 1488 1487 1485 1484 1483 1483 1483 1483 1483 1482 1482 1480 1479 1478 1476 1474
1510 1510 1510 1510 1511 1512 1513 1512 1512 1511 1511 1511 1510 1510 1508 1507 1506 1505 1503 1502 1500 1499 1497 1495 1494 1492 1490 1488 1487 1485 1484 1483 1482 1482 1482 1481 1480 1479 1478 1477 1476 1474 1472
1510 1509 1509 1509 1511 1512 1512 1512 1512 1512 1511 1511 1511 1510 1510 1508 1507 1506 1505 1503 1501 1500 1498 1497 1495 1494 1492 1490 1489 1487 1485 1484 1482 1481 1480 1480 1479 1478 1476 1475 1474 1472 1470
1509 1509 1508 1508 1509 1510 1511 1512 1512 1512 1511 1511 1511 1511 1510 1509 1508 1507 1505 1504 1502 1501 1500 1498 1497 1495 1494 1492 1491 1489 1487 1485 1483 1481 1479 1478 1477 1476 1475 1474 1473 1472 1470